[[{"header":{"parameterUnit":"m.s-1","parameterCategory":1,"la1":30.2991,"la2":30.254,"lo1":-89.0895,"lo2":-89.0444,"dy":0.0017,"dx":0.0017,"nx":28,"ny":28,"refTime":"2024-08-03T03:00:00:Z","depth":0,"parameterNumber":2,"parameterNumberName":"U-component_of_WINDS"},"data":[0,0,0,0,0,0,0,0,0,0,0,0,0,0,0,0,0,0,0,0,0,0,0,0,0,0,0,0,0,0,0,0,0,0,0,0,0,0,0,0,0,0,0,0,0,0,0,0,0,0,0,0,0,0,0,0,0,0,1.4824,1.4823,0,1.4744,1.4743,1.4742,1.4628,1.4626,1.4624,1.4622,1.4542,1.4542,1.4541,0,0,0,0,0,0,0,0,0,0,0,0,0,1.488,1.488,1.4824,1.4823,1.4822,1.4744,1.4743,1.4742,1.4628,1.4626,1.4623,1.4621,1.4542,1.4542,1.4541,0,0,0,0,0,0,0,0,0,0,0,0,0,1.4834,1.488,1.4824,1.4756,1.4749,1.4744,1.4743,1.4741,1.4629,1.4626,1.4623,1.462,1.4542,1.4542,1.4541,1.4597,0,0,1.454,1.454,0,0,0,0,0,0,0,0,1.4837,1.4832,1.4767,1.4761,1.4753,1.4693,1.4733,1.4693,1.4629,1.4674,1.4622,1.4619,1.4595,1.459,1.4581,1.4594,1.459,1.454,1.454,1.4539,1.4539,0,0,0,0,0,0,0,1.484,1.4835,1.4792,1.4766,1.4758,1.473,1.472,1.4725,1.4652,1.467,1.4662,1.4654,1.459,1.4582,1.4578,1.4589,1.454,1.4539,1.4539,1.4539,1.4642,1.4645,0,0,0,0,0,0,1.4853,1.4838,1.4795,1.479,1.4788,1.4731,1.472,1.4715,1.4652,1.4639,1.4656,1.4649,1.4584,1.4579,1.4575,1.4634,1.4539,1.4539,1.4539,1.4639,1.4642,1.4646,0,0,0,0,0,0,1.4855,1.485,1.4798,1.4812,1.4803,1.4733,1.4729,1.4715,1.4706,1.4641,1.4628,1.4661,1.4582,1.4576,1.4592,1.463,1.4539,1.4538,1.4635,1.464,1.4644,1.4755,0,0,0,0,0,0,1.4857,1.4852,1.4872,1.4813,1.4803,1.4816,1.4731,1.4716,1.4706,1.4695,1.4642,1.463,1.4579,1.4593,1.4592,1.4628,1.4538,1.4631,1.4637,1.4643,1.4747,1.4763,1.4776,0,0,0,0,0,1.4859,1.4907,1.4873,1.4869,1.4826,1.4818,1.4812,1.4751,1.4709,1.4729,1.4687,1.4632,1.4627,1.4596,1.4593,1.463,1.4629,1.4636,1.4642,1.4741,1.476,1.4775,0,0,0,0,0,0,1.4973,1.4898,1.486,1.489,1.4861,1.4799,1.4822,1.4773,1.4757,1.4747,1.4673,1.4662,1.4688,1.4661,1.4628,1.468,1.4619,1.4626,1.4696,1.4713,1.4727,1.4731,1.4538,0,0,0,0,0,1.5001,1.5001,1.4936,1.4969,1.4956,1.4892,1.4886,1.4842,1.481,1.4797,1.4756,1.4728,1.4719,1.4715,1.4704,1.4744,1.473,1.4768,1.4782,1.4794,1.4799,1.4817,1.4832,1.4668,1.4668,1.4668,0,0,1.506,1.5019,1.5023,1.499,1.4963,1.4964,1.4882,1.4887,1.4887,1.4798,1.4809,1.4779,1.4742,1.477,1.4781,1.4749,1.4842,1.4803,1.4813,1.4811,1.4825,1.4841,1.4855,1.4672,1.4671,1.4671,0,0,1.5166,1.5137,1.5159,1.5133,1.5093,1.505,1.5056,1.5001,1.4977,1.4988,1.492,1.492,1.4908,1.4883,1.487,1.4968,1.4916,1.4967,1.5039,1.5057,1.507,1.5081,1.5113,1.5126,1.4973,1.4974,1.4974,0,1.5244,1.5242,1.5177,1.5185,1.5172,1.5092,1.5114,1.5093,1.5051,1.5044,1.5009,1.4991,1.4961,1.4981,1.5005,1.4998,1.5001,1.4971,1.5073,1.5083,1.5093,1.5123,1.5136,1.498,1.4979,1.4979,1.4978,0,1.5338,1.5338,1.5362,1.5322,1.5313,1.5328,1.5266,1.5264,1.5222,1.5183,1.5194,1.5156,1.5134,1.5136,1.5095,1.5151,1.5131,1.5087,1.5023,1.5116,1.5142,1.5154,1.4989,1.4986,1.4985,1.4983,0,0,1.5511,1.5436,1.5445,1.5426,1.5376,1.5374,1.5387,1.5365,1.5364,1.5339,1.5346,1.5338,1.5296,1.528,1.5236,1.5252,1.5329,1.5204,1.5202,1.5226,1.5385,1.5417,1.5432,1.5296,1.5298,1.53,1.5387,0,1.5605,1.562,1.5562,1.5592,1.5591,1.5515,1.5526,1.5496,1.5461,1.5455,1.5416,1.541,1.5356,1.5346,1.5359,1.5317,1.536,1.5311,1.5301,1.5301,1.5309,1.5446,1.548,1.5564,1.5398,1.5399,1.5401,0,1.5715,1.5695,1.5725,1.5672,1.5669,1.5679,1.5654,1.565,1.5616,1.5589,1.5572,1.5521,1.5529,1.5472,1.5481,1.5449,1.5443,1.5422,1.5424,1.5418,1.5354,1.544,1.5589,1.5601,1.5417,1.5416,1.5415,0,1.5834,1.5815,1.5829,1.5815,1.5755,1.5764,1.574,1.5702,1.5693,1.5672,1.5665,1.5646,1.5635,1.5622,1.5567,1.5531,1.5582,1.5521,1.5559,1.556,1.557,1.5569,1.5717,1.5572,1.5572,1.5572,1.5571,0,1.5943,1.5963,1.5881,1.589,1.5911,1.5845,1.5868,1.5836,1.5804,1.5805,1.574,1.5743,1.5671,1.5666,1.5624,1.5637,1.5634,1.5611,1.5599,1.5615,1.5617,1.5607,1.5598,1.5575,1.5574,1.5573,1.5573,0,1.6077,1.6024,1.6034,1.5977,1.5963,1.598,1.5931,1.5937,1.5898,1.59,1.5897,1.5836,1.5827,1.5772,1.575,1.5721,1.5749,1.5727,1.576,1.5751,1.5791,1.5787,1.5933,1.5948,1.5798,1.58,1.5801,0,1.6148,1.6162,1.6106,1.6102,1.608,1.6074,1.6064,1.6002,1.5994,1.5956,1.5966,1.5951,1.5935,1.5924,1.5878,1.5861,1.5835,1.5888,1.5832,1.5847,1.5832,1.5831,1.5831,1.5899,1.5901,1.5903,1.5904,0,1.6279,1.6252,1.6239,1.6217,1.6207,1.6187,1.6164,1.6164,1.6095,1.6089,1.6078,1.6066,1.6044,1.6029,1.6004,1.5979,1.593,1.5923,1.593,1.5944,1.5961,1.5949,1.5789,1.5919,1.5917,1.5916,1.5915,1.5915,1.6381,1.6389,1.635,1.6338,1.6314,1.6294,1.6295,1.6257,1.6247,1.6223,1.6187,1.6181,1.6146,1.6107,1.6086,1.608,1.6052,1.6063,1.6066,1.6068,1.6075,1.5966,1.6076,1.6076,1.6075,1.6075,1.6075,0,1.6505,1.6477,1.6467,1.6435,1.6426,1.6382,1.6353,1.6348,1.6343,1.6315,1.6301,1.6288,1.6274,1.6228,1.6209,1.6213,1.6189,1.621,1.6207,1.6201,1.6104,1.6097,1.6229,1.6228,1.6228,1.6228,1.6228,1.6228,1.6568,1.6578,1.6547,1.6545,1.6517,1.6509,1.6497,1.6477,1.6454,1.6442,1.643,1.64,1.6364,1.6342,1.6327,1.6314,1.6309,1.6336,1.6315,1.6223,1.6209,1.6194,1.6188,1.6336,1.6336,1.6412,1.6413,1.6414]},{"header":{"parameterUnit":"m.s-1","parameterCategory":1,"la1":30.2991,"la2":30.254,"lo1":-89.0895,"lo2":-89.0444,"dy":0.0017,"dx":0.0017,"nx":28,"ny":28,"refTime":"2024-08-03T03:00:00:Z","depth":0,"parameterNumber":3,"parameterNumberName":"V-component_of_WINDS"},"data":[0,0,0,0,0,0,0,0,0,0,0,0,0,0,0,0,0,0,0,0,0,0,0,0,0,0,0,0,0,0,0,0,0,0,0,0,0,0,0,0,0,0,0,0,0,0,0,0,0,0,0,0,0,0,0,0,0,0,1.3981,1.3981,0,1.3901,1.39,1.3899,1.383,1.383,1.3829,1.3828,1.3738,1.3736,1.3734,0,0,0,0,0,0,0,0,0,0,0,0,0,1.407,1.4068,1.3982,1.3981,1.398,1.3901,1.39,1.3899,1.383,1.3829,1.3829,1.3828,1.3738,1.3736,1.3734,0,0,0,0,0,0,0,0,0,0,0,0,0,1.4014,1.4068,1.3982,1.3936,1.3931,1.3901,1.39,1.3898,1.3831,1.3829,1.3828,1.3827,1.3739,1.3736,1.3734,1.374,0,0,1.3726,1.3725,0,0,0,0,0,0,0,0,1.4018,1.4011,1.3944,1.3939,1.3934,1.3875,1.3898,1.3845,1.3831,1.3869,1.3828,1.3827,1.3784,1.3777,1.3764,1.3736,1.3732,1.3726,1.3724,1.3723,1.3722,0,0,0,0,0,0,0,1.4022,1.4014,1.3949,1.3943,1.3937,1.3918,1.3908,1.3887,1.3833,1.3865,1.386,1.3852,1.378,1.3767,1.3762,1.373,1.3726,1.3723,1.3722,1.3721,1.3702,1.3703,0,0,0,0,0,0,1.4033,1.4018,1.3952,1.3947,1.3974,1.3917,1.3907,1.3895,1.3833,1.3823,1.3853,1.3849,1.3772,1.3765,1.3758,1.376,1.3723,1.3721,1.3719,1.3701,1.3702,1.3703,0,0,0,0,0,0,1.4036,1.4028,1.3955,1.3981,1.397,1.3917,1.3903,1.3894,1.388,1.3824,1.3813,1.3849,1.3771,1.3762,1.3745,1.3756,1.3719,1.3717,1.3699,1.3701,1.3702,1.3765,0,0,0,0,0,0,1.4038,1.4029,1.4033,1.3982,1.3969,1.3946,1.3904,1.3893,1.3877,1.3871,1.3818,1.3808,1.3769,1.375,1.3743,1.3752,1.3715,1.3698,1.37,1.3702,1.3762,1.3769,1.3775,0,0,0,0,0,1.4042,1.4052,1.4033,1.4026,1.3973,1.3947,1.3939,1.3897,1.3878,1.388,1.3844,1.3809,1.3757,1.3748,1.374,1.3749,1.3697,1.3699,1.3702,1.3759,1.3767,1.3775,0,0,0,0,0,0,1.4103,1.4044,1.4023,1.4018,1.3988,1.3935,1.3936,1.3907,1.388,1.3876,1.3822,1.381,1.3799,1.3772,1.3764,1.3751,1.3722,1.3723,1.3769,1.3776,1.3782,1.3788,1.3713,0,0,0,0,0,1.4116,1.4102,1.4051,1.4051,1.4038,1.399,1.3977,1.3947,1.3913,1.39,1.3862,1.3829,1.3804,1.3789,1.3763,1.3759,1.3745,1.376,1.3767,1.3772,1.3773,1.3766,1.3772,1.3711,1.3711,1.3711,0,0,1.4142,1.4109,1.4103,1.4063,1.4036,1.4021,1.398,1.3965,1.3952,1.3896,1.3879,1.3851,1.3809,1.3799,1.3792,1.3776,1.3787,1.3775,1.378,1.3777,1.3769,1.3775,1.3781,1.3712,1.3712,1.3712,0,0,1.4182,1.4156,1.4153,1.4128,1.409,1.4058,1.4058,1.401,1.399,1.3972,1.393,1.3913,1.3873,1.3845,1.3825,1.3856,1.3823,1.3849,1.3881,1.3876,1.3881,1.3885,1.3894,1.3898,1.385,1.3851,1.3851,0,1.4218,1.4196,1.4154,1.4143,1.4126,1.4078,1.4073,1.405,1.4004,1.3992,1.3976,1.3925,1.3894,1.3875,1.3883,1.387,1.3865,1.3854,1.3884,1.3888,1.3891,1.3899,1.3902,1.3854,1.3854,1.3853,1.3853,0,1.4242,1.4227,1.4229,1.4189,1.4172,1.4164,1.4119,1.4107,1.4079,1.4049,1.403,1.3992,1.3957,1.3951,1.3923,1.3928,1.392,1.3895,1.3864,1.3901,1.3907,1.391,1.3859,1.3858,1.3857,1.3856,0,0,1.4315,1.4254,1.4255,1.4236,1.4191,1.4177,1.4167,1.4136,1.4125,1.4096,1.4084,1.4052,1.4029,1.4007,1.3975,1.3971,1.3996,1.3946,1.3944,1.3955,1.3997,1.4015,1.4019,1.3975,1.3975,1.3976,1.4,0,1.4345,1.4325,1.4289,1.4279,1.4264,1.4219,1.421,1.418,1.4152,1.4132,1.41,1.4077,1.405,1.4036,1.403,1.3994,1.4003,1.3992,1.396,1.3959,1.3969,1.4023,1.4041,1.4065,1.4002,1.4003,1.4003,0,1.4377,1.4353,1.4344,1.43,1.4292,1.4285,1.4253,1.4237,1.4201,1.4181,1.4158,1.4124,1.4108,1.4082,1.4058,1.4051,1.4036,1.4016,1.4016,1.4009,1.3982,1.4015,1.4072,1.4075,1.4007,1.4007,1.4006,0,1.4429,1.4394,1.4384,1.4369,1.4319,1.4314,1.4292,1.4256,1.424,1.4212,1.4201,1.4171,1.4154,1.413,1.4088,1.4074,1.4067,1.4039,1.4047,1.4048,1.4045,1.4046,1.4099,1.404,1.404,1.404,1.404,0,1.4466,1.4461,1.4407,1.44,1.4393,1.435,1.4343,1.4317,1.4286,1.4271,1.4231,1.4217,1.4164,1.4144,1.4111,1.4095,1.4088,1.4068,1.4059,1.4071,1.4073,1.4058,1.4054,1.4041,1.4041,1.4041,1.4041,0,1.4521,1.4485,1.447,1.4425,1.4413,1.441,1.4369,1.436,1.433,1.4313,1.4306,1.4258,1.4232,1.4189,1.415,1.4128,1.4117,1.4103,1.413,1.4124,1.4134,1.4133,1.4177,1.418,1.4122,1.4123,1.4123,0,1.4545,1.4541,1.4496,1.4485,1.4465,1.4448,1.4432,1.439,1.4375,1.4335,1.433,1.4302,1.4277,1.4237,1.4197,1.4167,1.415,1.4168,1.4145,1.4157,1.4148,1.4148,1.4146,1.4173,1.4174,1.4174,1.4175,0,1.4592,1.4575,1.4555,1.4529,1.4512,1.4489,1.4463,1.4456,1.4408,1.4392,1.4367,1.4348,1.431,1.4282,1.4246,1.422,1.4189,1.4183,1.4183,1.4193,1.4208,1.4198,1.4141,1.4181,1.4181,1.418,1.418,1.418,1.4631,1.4625,1.4592,1.4571,1.4549,1.4526,1.4515,1.4486,1.4465,1.4432,1.4408,1.4384,1.4348,1.4298,1.4275,1.4253,1.4239,1.4239,1.4239,1.4239,1.4243,1.4214,1.4247,1.4247,1.4246,1.4246,1.4246,0,1.4673,1.4651,1.4633,1.46,1.4583,1.4559,1.4529,1.4516,1.4497,1.4467,1.4445,1.4415,1.4388,1.4347,1.4316,1.4307,1.4291,1.43,1.4298,1.4293,1.4258,1.4261,1.4313,1.4313,1.4313,1.4313,1.4313,1.4313,1.4693,1.4681,1.4661,1.4637,1.4613,1.4592,1.4577,1.4555,1.4532,1.4502,1.448,1.4455,1.442,1.4387,1.436,1.4348,1.4337,1.435,1.4334,1.4302,1.4295,1.4289,1.4291,1.4349,1.4349,1.4369,1.4369,1.437]}]]